sat.trackr.live / text

‹ back to catalog

ONEWEB-0109

NORAD 47259 · 2020-100B

PAYLOAD ACTIVE UNKNOWN

§ Identity

Operator
Country
UK
Launch date
2020-12-18
Launch site
VOSTO
Launch vehicle
Mass (kg)
RCS (m²)

Purposes: comms

External: N2YO · Heavens-Above · Gunter

§ Orbital elements

Epoch: 2026-09-19T23:33:17.787168Z

Period
109.72 min
Inclination
87.8986°
Eccentricity
0.0001736
Mean motion
13.12443568 rev/d
Perigee alt
1,212.4 km
Apogee alt
1,215.0 km
Semi-major
7,591.9 km
B*
-7.8879e-4
RAAN
331.8435°
Arg perigee
100.5054°
Mean anomaly
259.6270°
Rev number
27,699

§ Raw data

ONEWEB-01091 47259U 20100B   26262.98145587 -.00000271  00000+0 -78879-3 0  99982 47259  87.8986 331.8435 0001736 100.5054 259.6270 13.12443568276995

JSON: /api/v1/satellites/47259 · /tle

For live sub-satellite position, see the globe view (requires WebGL).

§ Visibility from observer

Set your observer location to see the next 7 days of passes ≥ 10°. The values pass through the URL so the page stays shareable.

No JS? Fill the form by hand. The geolocation button needs JavaScript.